Погода в Бухаре

Погода в Бухаре : погода сейчас, прогноз погоды и архив. Всё, что Вы хотите узнать о погоде в Бухаре!

Поиск расширенной информации на нашем сайте:

Другие новости

Новости СМИ2

Главная страница сайта

Новости сайта

03.07.2017

Напоминаем, что на нашем специализированном сайте Метеоцентр.Азия вы можете получить высокодетализированные автоматические прогнозы погоды по пунктам России, СНГ и мира в авиационном формате (включающие направление и скорость ветра, видимость, явления погоды, количество и форму облачности, нижнюю и верхнюю границу облачности).


Погода в Бухаре - сегодня

Время (UTC), дата Ветер
(°,м/с) 
Видим.   Явления Облачность Т
(°С)
Тd
(°С)
f(%) Тe
(°С)
Pmin
(гПа)
dP
(гПа)
Po
(мм)
O2
(г/м3)
Тmin Tmax R s Состояние
почвы
21 19.05.18 360 (С) 10 км    8/0 верхняя 
[Ci fib]
+15.8 -0.2 34 +16  1016  -0.3  742  283           
00 20.05.18 340 (С) 10 км    10/0 средняя, верхняя 
[Ac trans|Ci fib]
+14.5 -0.7 35 +14  1016  -0.1  742  284           
03 20.05.18 340 (С) 10 км    10/0 средняя 
[Ac trans]
+17 +0.2 32 +17  1016.6  21.9  751  285           
06 20.05.18 090 (В) 10 км    10/0 средняя, верхняя 
[Ac trans|Ci fib]
+25.3 +0.9 20 +25  1016.3  0.4  743  274  +14.3         
09 20.05.18 020 (С) 10 км    10/0 верхняя 
[Ci fib]
+27.3 -0.7 16 +27  1015.7  -0.4  743  272           
12 20.05.18 320 (СЗ) 10 км    10/0 средняя, верхняя 
[Ac trans|Ci fib]
+28.9 -2.2 13 +29  1014.6  -1.2  742  270           
15 20.05.18 тихо ()   10 км    10/0 средняя, верхняя 
[Ac trans|Ci fib]
+26 +0 18 +26  1014.2  -0.3  741  273    +29.1       
18 20.05.18 070 (В) 10 км    4/0 средняя 
[Ac trans]
+21.8 -0.5 23 +22  1014.9  0.2  742  277    +29.1       
21 20.05.18 тихо ()   10 км    4/0 средняя 
[Ac trans]
+15.3 +5.1 51 +15  1014.7  -0.7  741  282           
00 21.05.18 090 (В) 10 км    10/0 средняя, верхняя 
[Ac trans|Ci fib]
+13.5 +5.6 59 +14  1014.7  -0.1  741  284           
03 21.05.18 тихо ()   10 км    10/0 средняя, верхняя 
[Ac trans|Ci fib]
+19.2 +6.7 44 +19  1015.6  1.3  742  278           
06 21.05.18 200 (Ю) 10 км    10/0 средняя, верхняя 
[Ac trans|Ci fib]
+28.5 -1.2 14 +29  1014.1  -0.7  741  271  +13.1         
09 21.05.18 160 (Ю) 10 км    10/1 1000 м средняя 
[Cu hum|Ac trans]
+30.1 +0.2 15 +30  1013.3  -0.6  741  269           
12 21.05.18 тихо ()   10 км    4/4 1000 м 
[Cu hum]
+30.6 -0.7 13 +31  1012.8  -0.5  741  268           
15 21.05.18 360 (С) 10 км    8/0 средняя 
[Ac trans]
+26.5 +6.2 27 +27  1013.4  0.4  741  271    +31       
18 21.05.18 тихо ()   10 км    ясно 
+21.5 +6.5 38 +22  1014.7  0.7  741  276    +31       
21 21.05.18 тихо ()   10 км    ясно 
+18 +5 42 +18  1014.6  -0.4  741  279           
00 22.05.18 тихо ()   10 км    3/0 верхняя 
[Ci fib]
+15.2 +7.3 59 +15  1015.1  0.3  741  282           
03 22.05.18 тихо ()   10 км    5/0 верхняя 
[Ci fib]
+20.5 +9 48 +21  1015.6  0.9  742  277           
06 22.05.18 140 (ЮВ) 10 км    8/0 средняя, верхняя 
[Ac trans|Ci fib]
+29.6 +3.8 19 +30  1015.7  0.9  743  269  +14.9         
09 22.05.18 200 (Ю) 10 км    8/3 1000 м верхняя 
[Cu hum|Ci fib]
+31.5 +1.5 15 +32  1015  -0.6  742  268           
12 22.05.18 340 (С) 10 км    5/1 1000 м верхняя 
[Cu hum|Ci fib]
+32 +0.6 13 +32  1014.2  -0.7  742  267           
15 22.05.18 110 (В) 10 км    10/0 средняя 
[Ac trans]
+28.6 +5.1 22 +29  1014.7  0.2  742  270    +32.1       
18 22.05.18 160 (Ю) 10 км    5/0 средняя 
[Ac trans]
+25 +4.1 26 +25  1015.4  0.4  742  273    +32.1       
21 22.05.18 230 (ЮЗ) 10 км    ясно 
+22.1 +5.6 34 +22  1015.4  -0.3  742  276           
Время (UTC), дата Ветер
(°,м/с) 
Видим.   Явления Облачность Т
(°С)
Тd
(°С)
f(%) Тe
(°С)
Pmin
(гПа)
dP
(гПа)
Po
(мм)
O2
(г/м3)
Тmin Tmax R s Состояние
почвы

Для получения пояснительной информации подведите курсор к названию столбца.

ПОГОДА в Бухаре - архив

Всё, что Вы хотите узнать о погоде в Бухаре - удобно и подробно!

Выберите нужную дату (начиная с 1 января 2015* года) и нажмите кнопку "Найти".
Будут отображены архивные сводки погоды по пункту Бухара, начиная с указанной даты.


Отображать данные в формате CSV (для использования в таблицах Excel)


Внимание! Наш архив погоды предназначен исключительно для личного некоммерческого использования в познавательных целях. Если Вам необходимы официальные справки о состоянии погоды (для производственных, юридических, коммерческих и т.п. целей), обращайтесь в органы Росгидромета.

*Примечание: данная дата относится к архиву по метеостанциям СССР (Россия, СНГ, Балтия).
Архив по метеостанциям Зарубежной Европы и Азии (кроме Китая) хранится 10 дней, по другим регионам земного шара (Китай, Африка, Америка, Австралия, Океания) - 1 день.

Бухара - район местоположения метеостанции


Название, широта, долгота, высота метеостанции:
Бухара 39.7°ш. 64.6°д. 226 м над ур. моря [Узбекистан]

Дополнительная информация

В oтличие oт бoльшинства пoгoдных сайтoв мы публикуем пoдрoбную метеoинфoрмацию в детальнoм прoфессиoнальнoм фoрмате.

Характеристики температуры и влажнoсти вoздуха измеряются на высoте 2 м в тени вдали oт зданий и деревьев.
Скoрoсть ветра измеряется на высoте 10 м (на урoвне рoста челoвека скoрoсть ветра ниже в 1.5-2 раза). Если метеoстанция нахoдится в гoрoде или в лесу, тo скoрoсть ветра занижена на 2-4 м/с пo сравнению с oткрытым местoм. Скoрoсть ветра над акватoриями крупных рек и oзёр, а также на вершинах хoлмoв на 2-5 м/с выше, чем в oбычных услoвиях.
Атмoсфернoе давление в разных тoчках местнoсти мoжет значительнo oтличаться oт давления на метеoстанции, в зависимoсти oт услoвий рельефа (при пoдъёме на 10 м давление пoнижается примернo на 1 мм рт.ст.).